Powrót do katalogu

SL-16 DEB

AktywnyLEO
NORAD 39902·DEBRIS·🇷🇺 Russia

Wystrzelony Mar 26, 1993 z Baikonur Cosmodrome

Loading…

Następne Przeloty (najbliższe 24 godziny)

TLE

ŚwieżeSource: Space-Track

Epoka: Sep 14, 2026, 23:22 UTC

1 39902U 93016CC  26257.97417093  .00000040  00000-0  76224-4 0  9993
2 39902  71.0017  94.6194 0189695  29.7316 119.0571 13.74614691615727

Śledź SL-16 DEB w czasie rzeczywistym z AllMySat

Download on the App Store